Time,TemperatureF,DewpointF,PressureIn,WindDirection,WindDirectionDegrees,WindSpeedMPH,WindSpeedGustMPH,Humidity,HourlyPrecipIn,Conditions,Clouds,dailyrainin,SoftwareType,DateUTC
2013-03-27 00:03:00,27.0,23.0,29.79,NNW,337,0.0,0.0,83,0.00,,,0.00,,2013-03-27 04:03:00,
2013-03-27 00:13:00,27.0,23.0,29.79,NNW,337,0.0,0.0,83,0.00,,,0.00,,2013-03-27 04:13:00,
2013-03-27 00:23:00,27.0,23.0,29.79,NNW,337,0.0,0.0,83,0.00,,,0.00,,2013-03-27 04:23:00,
2013-03-27 00:33:00,27.0,23.0,29.79,NNW,337,0.0,0.0,83,0.00,,,0.00,,2013-03-27 04:33:00,
2013-03-27 00:42:00,27.0,23.0,29.79,NNW,337,0.0,0.0,83,0.00,,,0.00,,2013-03-27 04:42:00,
2013-03-27 06:32:00,21.0,21.0,29.80,NNW,344,0.0,0.0,100,0.00,,,0.00,,2013-03-27 10:32:00,
2013-03-27 06:42:00,21.0,21.0,29.80,NNW,344,0.0,0.0,100,0.00,,,0.00,,2013-03-27 10:42:00,
2013-03-27 06:53:00,21.0,21.0,29.80,NNW,344,0.0,0.0,100,0.00,,,0.00,,2013-03-27 10:53:00,
2013-03-27 07:03:00,21.0,21.0,29.80,NNW,344,0.0,0.0,100,0.00,,,0.00,,2013-03-27 11:03:00,
2013-03-27 07:12:00,21.0,21.0,29.80,NNW,344,0.0,0.0,100,0.00,,,0.00,,2013-03-27 11:12:00,
2013-03-27 07:22:00,22.0,22.0,29.80,NNW,344,0.0,0.0,100,0.00,,,0.00,,2013-03-27 11:22:00,
2013-03-27 07:32:00,22.0,22.0,29.80,NNW,344,0.0,0.0,100,0.00,,,0.00,,2013-03-27 11:32:00,
2013-03-27 07:42:00,22.0,22.0,29.80,NNW,344,0.0,0.0,100,0.00,,,0.00,,2013-03-27 11:42:00,
2013-03-27 07:53:00,23.0,23.0,29.80,NNW,344,0.0,0.0,100,0.00,,,0.00,,2013-03-27 11:53:00,
2013-03-27 08:02:00,24.0,24.0,29.80,NNW,344,0.0,1.0,100,0.00,,,0.00,,2013-03-27 12:02:00,
2013-03-27 08:12:00,24.0,24.0,29.80,NNW,344,0.0,1.0,100,0.00,,,0.00,,2013-03-27 12:12:00,
2013-03-27 08:23:00,25.0,24.0,29.80,NNW,340,0.0,0.0,97,0.00,,,0.00,,2013-03-27 12:23:00,
2013-03-27 08:32:00,26.0,25.0,29.80,NNW,340,0.0,0.0,94,0.00,,,0.00,,2013-03-27 12:32:00,
2013-03-27 08:43:00,26.0,25.0,29.80,NNW,340,0.0,0.0,94,0.00,,,0.00,,2013-03-27 12:43:00,
2013-03-27 08:52:00,28.0,25.0,29.81,NNW,339,0.0,0.0,90,0.00,,,0.00,,2013-03-27 12:52:00,
2013-03-27 09:02:00,30.0,26.0,29.80,NNW,330,0.0,0.0,86,0.00,,,0.00,,2013-03-27 13:02:00,
2013-03-27 09:12:00,30.0,26.0,29.80,NNW,330,0.0,0.0,86,0.00,,,0.00,,2013-03-27 13:12:00,
2013-03-27 09:22:00,32.0,26.0,29.80,East,100,0.0,1.0,77,0.00,,,0.00,,2013-03-27 13:22:00,
2013-03-27 09:32:00,33.0,26.0,29.80,East,100,0.0,1.0,76,0.00,,,0.00,,2013-03-27 13:32:00,
2013-03-27 09:42:00,33.0,26.0,29.80,East,100,0.0,1.0,76,0.00,,,0.00,,2013-03-27 13:42:00,
2013-03-27 09:53:00,34.0,26.0,29.80,East,100,0.0,1.0,73,0.00,,,0.00,,2013-03-27 13:53:00,
2013-03-27 10:02:00,36.0,28.0,29.80,East,99,1.0,2.0,71,0.00,,,0.00,,2013-03-27 14:02:00,
2013-03-27 10:12:00,36.0,28.0,29.80,East,99,1.0,2.0,71,0.00,,,0.00,,2013-03-27 14:12:00,
2013-03-27 10:22:00,37.0,28.0,29.79,ENE,75,0.0,3.0,69,0.00,,,0.00,,2013-03-27 14:22:00,
2013-03-27 10:32:00,39.0,29.0,29.79,ENE,75,0.0,3.0,66,0.00,,,0.00,,2013-03-27 14:32:00,
2013-03-27 10:42:00,39.0,29.0,29.79,ENE,75,0.0,3.0,66,0.00,,,0.00,,2013-03-27 14:42:00,
2013-03-27 10:52:00,41.0,29.0,29.79,NNE,25,0.0,2.0,61,0.00,,,0.00,,2013-03-27 14:52:00,
2013-03-27 11:02:00,43.0,29.0,29.78,North,359,1.0,6.0,57,0.00,,,0.00,,2013-03-27 15:02:00,
2013-03-27 11:12:00,43.0,29.0,29.78,North,359,1.0,6.0,57,0.00,,,0.00,,2013-03-27 15:12:00,
2013-03-27 11:22:00,44.0,29.0,29.78,NW,319,0.0,3.0,56,0.00,,,0.00,,2013-03-27 15:22:00,
2013-03-27 11:33:00,46.0,29.0,29.78,NNE,28,1.0,10.0,51,0.00,,,0.00,,2013-03-27 15:33:00,
2013-03-27 11:42:00,46.0,29.0,29.78,NNE,28,1.0,10.0,51,0.00,,,0.00,,2013-03-27 15:42:00,
2013-03-27 11:53:00,47.0,28.0,29.78,NW,304,8.0,19.0,48,0.00,,,0.00,,2013-03-27 15:53:00,
2013-03-27 12:03:00,48.0,29.0,29.77,NNW,342,4.0,12.0,48,0.00,,,0.00,,2013-03-27 16:03:00,
2013-03-27 12:13:00,48.0,29.0,29.77,NNW,342,4.0,12.0,48,0.00,,,0.00,,2013-03-27 16:13:00,
2013-03-27 12:22:00,48.0,28.0,29.77,NW,309,5.0,19.0,46,0.00,,,0.00,,2013-03-27 16:22:00,
2013-03-27 12:32:00,49.0,28.0,29.77,NNE,21,8.0,22.0,44,0.00,,,0.00,,2013-03-27 16:32:00,
2013-03-27 12:42:00,49.0,28.0,29.77,NNE,21,8.0,22.0,44,0.00,,,0.00,,2013-03-27 16:42:00,
2013-03-27 12:52:00,49.0,28.0,29.76,NW,305,10.0,19.0,44,0.00,,,0.00,,2013-03-27 16:52:00,
2013-03-27 13:03:00,48.0,27.0,29.75,ENE,76,2.0,19.0,44,0.00,,,0.00,,2013-03-27 17:03:00,
2013-03-27 13:12:00,48.0,27.0,29.75,ENE,76,2.0,19.0,44,0.00,,,0.00,,2013-03-27 17:12:00,
2013-03-27 13:22:00,49.0,27.0,29.76,NW,311,7.0,17.0,43,0.00,,,0.00,,2013-03-27 17:22:00,
2013-03-27 13:32:00,50.0,28.0,29.75,WNW,288,7.0,14.0,42,0.00,,,0.00,,2013-03-27 17:32:00,
2013-03-27 13:44:00,50.0,28.0,29.75,WNW,288,7.0,14.0,42,0.00,,,0.00,,2013-03-27 17:44:00,
2013-03-27 13:52:00,50.0,27.0,29.75,NNW,335,6.0,17.0,41,0.00,,,0.00,,2013-03-27 17:52:00,
2013-03-27 14:02:00,49.0,27.0,29.75,North,357,5.0,17.0,43,0.00,,,0.00,,2013-03-27 18:02:00,
2013-03-27 14:12:00,49.0,27.0,29.75,North,357,5.0,17.0,43,0.00,,,0.00,,2013-03-27 18:12:00,
2013-03-27 14:23:00,49.0,27.0,29.74,NNW,346,6.0,15.0,43,0.00,,,0.00,,2013-03-27 18:23:00,
2013-03-27 14:32:00,51.0,28.0,29.74,NW,316,6.0,13.0,40,0.00,,,0.00,,2013-03-27 18:32:00,
2013-03-27 14:42:00,51.0,28.0,29.74,NW,316,6.0,13.0,40,0.00,,,0.00,,2013-03-27 18:42:00,
2013-03-27 14:53:00,50.0,28.0,29.74,West,278,6.0,19.0,43,0.00,,,0.00,,2013-03-27 18:53:00,
2013-03-27 15:02:00,50.0,28.0,29.75,NW,322,9.0,22.0,42,0.00,,,0.00,,2013-03-27 19:02:00,
2013-03-27 15:12:00,50.0,28.0,29.75,NW,322,9.0,22.0,42,0.00,,,0.00,,2013-03-27 19:12:00,
2013-03-27 15:22:00,50.0,27.0,29.75,NW,319,8.0,20.0,41,0.00,,,0.00,,2013-03-27 19:22:00,
2013-03-27 15:32:00,49.0,26.0,29.75,North,359,9.0,22.0,40,0.00,,,0.00,,2013-03-27 19:32:00,
2013-03-27 15:42:00,49.0,26.0,29.75,North,359,9.0,22.0,40,0.00,,,0.00,,2013-03-27 19:42:00,
2013-03-27 15:52:00,49.0,26.0,29.75,NNW,329,8.0,27.0,41,0.00,,,0.00,,2013-03-27 19:52:00,
2013-03-27 16:02:00,49.0,27.0,29.75,North,10,3.0,13.0,43,0.00,,,0.00,,2013-03-27 20:02:00,
2013-03-27 16:12:00,49.0,27.0,29.75,North,10,3.0,13.0,43,0.00,,,0.00,,2013-03-27 20:12:00,
2013-03-27 16:22:00,48.0,27.0,29.75,NE,34,5.0,18.0,43,0.00,,,0.00,,2013-03-27 20:22:00,
2013-03-27 16:32:00,48.0,27.0,29.76,North,360,4.0,18.0,43,0.00,,,0.00,,2013-03-27 20:32:00,
2013-03-27 16:42:00,48.0,27.0,29.76,North,360,4.0,18.0,43,0.00,,,0.00,,2013-03-27 20:42:00,
2013-03-27 16:52:00,48.0,27.0,29.76,NNW,330,5.0,17.0,44,0.00,,,0.00,,2013-03-27 20:52:00,
2013-03-27 17:02:00,48.0,29.0,29.77,NW,305,7.0,16.0,47,0.00,,,0.00,,2013-03-27 21:02:00,
2013-03-27 17:12:00,48.0,29.0,29.77,NW,305,7.0,16.0,47,0.00,,,0.00,,2013-03-27 21:12:00,
2013-03-27 17:22:00,47.0,29.0,29.77,North,4,5.0,10.0,50,0.00,,,0.00,,2013-03-27 21:22:00,
2013-03-27 17:32:00,47.0,30.0,29.78,NW,318,2.0,8.0,51,0.00,,,0.00,,2013-03-27 21:32:00,
2013-03-27 17:43:00,47.0,30.0,29.78,NW,318,2.0,8.0,51,0.00,,,0.00,,2013-03-27 21:43:00,
2013-03-27 17:52:00,46.0,29.0,29.78,NNW,328,2.0,12.0,52,0.00,,,0.00,,2013-03-27 21:52:00,
2013-03-27 18:03:00,47.0,30.0,29.78,NNW,330,5.0,8.0,52,0.00,,,0.00,,2013-03-27 22:03:00,
2013-03-27 18:12:00,47.0,30.0,29.78,NNW,330,5.0,8.0,52,0.00,,,0.00,,2013-03-27 22:12:00,
2013-03-27 18:23:00,46.0,29.0,29.78,WNW,301,5.0,8.0,52,0.00,,,0.00,,2013-03-27 22:23:00,
2013-03-27 18:33:00,46.0,31.0,29.79,NNW,329,4.0,8.0,55,0.00,,,0.00,,2013-03-27 22:33:00,
2013-03-27 18:42:00,46.0,31.0,29.79,NNW,329,4.0,8.0,55,0.00,,,0.00,,2013-03-27 22:42:00,
2013-03-27 18:53:00,45.0,30.0,29.80,NW,315,0.0,7.0,56,0.00,,,0.00,,2013-03-27 22:53:00,
2013-03-27 19:02:00,45.0,30.0,29.80,NNW,340,1.0,11.0,55,0.00,,,0.00,,2013-03-27 23:02:00,
2013-03-27 19:12:00,45.0,30.0,29.80,NNW,340,1.0,11.0,55,0.00,,,0.00,,2013-03-27 23:12:00,
2013-03-27 19:22:00,44.0,30.0,29.81,NW,311,0.0,3.0,57,0.00,,,0.00,,2013-03-27 23:22:00,
2013-03-27 19:32:00,44.0,30.0,29.81,NNW,329,2.0,6.0,58,0.00,,,0.00,,2013-03-27 23:32:00,
2013-03-27 19:42:00,44.0,30.0,29.81,NNW,329,2.0,6.0,58,0.00,,,0.00,,2013-03-27 23:42:00,
2013-03-27 19:52:00,43.0,29.0,29.82,WNW,296,1.0,4.0,57,0.00,,,0.00,,2013-03-27 23:52:00,
2013-03-27 20:02:00,44.0,30.0,29.83,NW,322,1.0,4.0,57,0.00,,,0.00,,2013-03-28 00:02:00,
2013-03-27 20:12:00,44.0,30.0,29.83,NW,322,1.0,4.0,57,0.00,,,0.00,,2013-03-28 00:12:00,
2013-03-27 20:22:00,43.0,29.0,29.83,NW,318,0.0,3.0,58,0.00,,,0.00,,2013-03-28 00:22:00,
2013-03-27 20:33:00,43.0,30.0,29.83,NW,319,0.0,4.0,59,0.00,,,0.00,,2013-03-28 00:33:00,
2013-03-27 20:43:00,43.0,30.0,29.83,NW,319,0.0,4.0,59,0.00,,,0.00,,2013-03-28 00:43:00,
2013-03-27 20:52:00,42.0,29.0,29.83,NNW,339,0.0,4.0,60,0.00,,,0.00,,2013-03-28 00:52:00,
2013-03-27 21:02:00,41.0,29.0,29.84,NW,318,0.0,0.0,62,0.00,,,0.00,,2013-03-28 01:02:00,
2013-03-27 21:12:00,41.0,29.0,29.84,NW,318,0.0,0.0,62,0.00,,,0.00,,2013-03-28 01:12:00,
2013-03-27 21:22:00,41.0,29.0,29.85,NNW,328,0.0,2.0,62,0.00,,,0.00,,2013-03-28 01:22:00,
2013-03-27 21:32:00,41.0,29.0,29.85,North,359,2.0,7.0,61,0.00,,,0.00,,2013-03-28 01:32:00,
2013-03-27 21:42:00,41.0,29.0,29.85,North,359,2.0,7.0,61,0.00,,,0.00,,2013-03-28 01:42:00,
2013-03-27 21:53:00,42.0,30.0,29.86,North,354,0.0,7.0,61,0.00,,,0.00,,2013-03-28 01:53:00,
2013-03-27 22:02:00,42.0,31.0,29.86,North,352,5.0,10.0,64,0.00,,,0.00,,2013-03-28 02:02:00,
2013-03-27 22:12:00,42.0,31.0,29.86,North,352,5.0,10.0,64,0.00,,,0.00,,2013-03-28 02:12:00,
2013-03-27 22:22:00,41.0,30.0,29.87,NNW,344,1.0,6.0,65,0.00,,,0.00,,2013-03-28 02:22:00,
2013-03-27 22:32:00,41.0,31.0,29.87,North,350,3.0,7.0,67,0.00,,,0.00,,2013-03-28 02:32:00,
2013-03-27 22:42:00,41.0,31.0,29.87,North,350,3.0,7.0,67,0.00,,,0.00,,2013-03-28 02:42:00,
2013-03-27 22:52:00,41.0,31.0,29.87,North,350,3.0,7.0,67,0.00,,,0.00,,2013-03-28 02:52:00,
2013-03-27 23:02:00,40.0,31.0,29.88,NNW,344,3.0,10.0,71,0.00,,,0.00,,2013-03-28 03:02:00,
2013-03-27 23:12:00,40.0,31.0,29.88,NNW,344,3.0,10.0,71,0.00,,,0.00,,2013-03-28 03:12:00,
2013-03-27 23:22:00,40.0,32.0,29.88,North,356,1.0,6.0,72,0.00,,,0.00,,2013-03-28 03:22:00,
2013-03-27 23:33:00,40.0,32.0,29.88,North,359,3.0,11.0,74,0.00,,,0.00,,2013-03-28 03:33:00,
2013-03-27 23:43:00,40.0,32.0,29.88,North,359,3.0,11.0,74,0.00,,,0.00,,2013-03-28 03:43:00,
2013-03-27 23:53:00,39.0,32.0,29.87,NW,322,2.0,6.0,75,0.00,,,0.00,,2013-03-28 03:53:00,